SCOUT A R/B, 2120

Orbit data source: Space-Track

SCOUT A R/B, 2120 is space debris in LEO originally from a launch on Sat, 26 Mar 1966 UTC launched from the Air Force Western Test Range (AFWTR). Debris objects in space refer to the collection of defunct objects orbiting the Earth. Examples of debris include non-operational satellites, rocket bodies, and fragments generated from explosions, collisions, or faulty payload assembly.

Loading next visibility...
Identifier
2120, 1966-024B
Orbit
LEO
Country
Flag of USUS
Related business
Manufacturer
ABL
Mission
Spacecraft
Bus & Motor
ALTAIR, Unknown motor
Mass
33 kg wet, 33 kg dry
Launch date (UTC)
1966-03-26 (60 years ago)
Launch vehicle
Unknown
Launch site
Air Force Western Test Range (AFWTR)
Object type
Payload
Rocket body
Debris
Shape & HBR
Unknown
Radar Cross Section
Medium (>0.1 m² and <1 m²)

Expand to show TLE details & history
Last TLE update: 17 hours ago

TLE from 17 hours ago
0 SCOUT A R/B
1 02120U 66024B   25354.49683787  .00000118  00000-0  10744-3 0  9993
2 02120  89.8142 175.2682 0153004  33.2936 327.7739 13.72602632987407
Epoch: 2025-12-20T11:55Z
TLE epoch observation values (Epoch: 2025-12-20T11:55:26.791Z)
Latitude
0.00002°
Longitude
-92.91623°
Altitude
898.338 km
Speed
7.45 km/s
True Right ascension
11h 41m 04s
True Declination
0° 00' 00"
Sunlit
Object was in daylight at epoch
Visualization orbit readout
Latitude
Unknown
Longitude
Unknown
Altitude
Unknown
Speed
Unknown
Apparent Right ascension
Unknown
Apparent Declination
Unknown
Sunlit
N/A
Visualization observer readout
Local Sidereal Time
03:55:49
Azimuth
Unknown
Elevation
Unknown
Doppler factor
Unknown
Orbital elements
Apogee altitude
1,099.951 km
Perigee altitude
874.564 km
Semi-major axis
7,365.395 km
Eccentricity
0.0153
Inclination
89.8142°
RAAN
175.2682°
Arg. of periapsis
33.2936°
True anomaly
326.82361°
Mean anomaly
327.7739°
Eccentric anomaly
327.3003°
Mean motion
3.4336 °/min
Orbital period
104.85 mins
BSTAR
0.00010744
Loading maneuver chart data...
Computing Atmospheric mass density...
Loading historical data...
Loading historical data...
Loading historical data...
Loading historical data...
Loading historical data...
Loading historical data...
Loading historical data...

Documentation

Showing up to 5 results
|